Weather Roundup
Issued by NWS

Home | Current Version | Previous Version | Graphics & Text | Print | Product List | Glossary Off
Versions: 1 2 3 4 5 6 7 8 9 10 11 12 13 14 15 16 17 18 19 20 21 22 23 24 25 26 27 28 29 30 31 32 33 34 35 36 37 38 39 40 41 42 43 44 45 46 47 48 49 50

000
NZUS93 KARX 261259
HRRWXR

CURRENT HOURLY OBSERVATIONS ACROSS
MUCH OF THE UPPER MISSISSIPPI VALLEY
NATIONAL WEATHER SERVICE LA CROSSE WI
800 AM CDT FRI MAY 26 2017


...SOUTHEAST MINNESOTA...


CITY           SKY/WX    TMP DP  RH WIND       PRES   REMARKS
ROCHESTER      CLOUDY    59  55  87 S10       29.77R
ROCHESTER/MAYO CLOUDY    59  54  83 SE8       29.75S
WINONA         SUNNY     61  55  82 SE6       29.76F
AUSTIN         CLOUDY    61  52  72 SE5       29.74R
ALBERT LEA     CLOUDY    61  54  77 SE6       29.73R
DODGE CENTER   CLOUDY    59  54  82 SE9       29.74R
PRESTON        CLOUDY    59  53  79 SE3       29.77R
OWATONNA       CLOUDY    63  52  67 SE10      29.72S
FARIBAULT      CLOUDY    63  54  72 SE5       29.72S
$$

...ELSEWHERE IN MINNESOTA...


CITY           SKY/WX    TMP DP  RH WIND       PRES   REMARKS
MINNEAPOLIS    CLOUDY    62  52  69 SE9       29.71S
INTNL FALLS    CLOUDY    56  52  86 SE6       29.66S
DULUTH         CLOUDY    50  47  89 E10       29.73S
RED WING       MOSUNNY   63  54  72 SE8       29.72F
REDWOOD FALLS  PTSUNNY   59  52  77 W8        29.70R
MANKATO          N/A     61  53  75 S7        29.72R
WORTHINGTON    MOSUNNY   58  54  86 W9        29.73R
FAIRMONT       PTSUNNY   59  53  80 S7        29.73R
$$

...SOUTHWEST WISCONSIN...


CITY           SKY/WX    TMP DP  RH WIND       PRES   REMARKS
LA CROSSE      MOSUNNY   62  57  83 E6        29.76S
PRAIRIE DU CHI MOSUNNY   59  54  84 E3        29.77S
BOSCOBEL       CLOUDY    60  57  89 CALM      29.79R
LONE ROCK      NOT AVBL
PLATTEVILLE    MOSUNNY   60  58  94 SE7       29.81R
FORT MC COY    SUNNY     58  56  94 E3        29.78F
MAUSTON-NEW LI SUNNY     59  57  94 SE3       29.79F FOG
VIROQUA        FAIR      58  55  89 MISG      29.78S
WIS DELLS      CLOUDY    61  55  81 E5        29.80F
$$

...ELSEWHERE IN WISCONSIN...


CITY           SKY/WX    TMP DP  RH WIND       PRES   REMARKS
MILWAUKEE      PTSUNNY   56  53  90 E5        29.86S
MADISON        CLOUDY    59  54  83 SE5       29.81F
GREEN BAY      CLOUDY    56  56 100 S5        29.86R
EAU CLAIRE     NOT AVBL
BLACK RVR FLS  FAIR      60  60  97 CALM      29.78S
MEDFORD        CLOUDY    55  53  93 CALM      29.81R
WAUSAU         CLOUDY    56  54  93 E6        29.81R
WIS RAPIDS     CLOUDY    59  56  89 SE6       29.83S
MARSHFIELD     CLOUDY    59  55  87 E6        29.80S
RICE LAKE      CLOUDY    59  53  81 SE9       29.77R
$$

...NORTHEAST IOWA...


CITY           SKY/WX    TMP DP  RH WIND       PRES   REMARKS
WATERLOO       CLOUDY    62  53  72 SE6       29.73S
DUBUQUE        CLOUDY    60  56  86 SE8       29.78S
DECORAH        MOSUNNY   59  55  88 VRB7      29.75R
MASON CITY     PTSUNNY   59  53  80 SE12      29.75R
CHARLES CITY   CLOUDY    61  55  82 SE9       29.75R
OELWEIN        CLOUDY    61  55  82 SE12      29.77R
$$

...ELSEWHERE IN IOWA...


CITY           SKY/WX    TMP DP  RH WIND       PRES   REMARKS
DES MOINES     LGT RAIN  60  55  83 SE7       29.72R
IOWA CITY      CLOUDY    63  54  72 E9        29.73F
FORT DODGE     CLOUDY    59  52  77 S6        29.75R
MARSHALLTOWN   CLOUDY    60  54  80 E8        29.71F
CEDAR RAPIDS   CLOUDY    62  56  80 E13       29.72F
$$

...NORTHERN ILLINOIS...


CITY           SKY/WX    TMP DP  RH WIND       PRES   REMARKS
CHICAGO-OHARE  PTSUNNY   62  54  74 SE7       29.85R
CHICAGO-MIDWAY MOSUNNY   62  54  74 S5        29.86R
MOLINE         CLOUDY    65  55  70 SE9       29.77F
ROCKFORD       PTSUNNY   63  56  78 SE6       29.84S
PEORIA         MOSUNNY   64  56  75 VRB6      29.83R
$$

NOTE: "FAIR" INDICATES FEW OR NO CLOUDS BELOW 12,000 FEET WITH NO
SIGNIFICANT WEATHER AND/OR OBSTRUCTIONS TO VISIBILITY. WIND
SPEEDS ARE IN MILES-PER-HOUR.




USA.gov is the U.S. government's official web portal to all federal, state and local government web resources and services.